Location: Bailleul
(50.3375°N, 2.8513°E)
Time: 09:53:37
(UTC+00:00)

Cosmos 1908 - Pass Details

Date: 16 June 2021
Orbit: 509 x 530 km, 82.5° (Epoch: 01 August)

Event Time Altitude Azimuth Distance (km) Brightness Sun altitude
Rises 20:44:39 0° 354° (N) 2,679 7.8 -5.7°
Reaches altitude 10° 20:46:54 10° 1° (N) 1,782 6.7 -6.0°
Maximum altitude 20:50:39 44° 75° (ENE) 738 3.8 -6.4°
Drops below altitude 10° 20:54:21 10° 148° (SSE) 1,756 5.2 -6.8°
Enters shadow 20:54:40 - 150° (SSE) 1,881 5.4 -6.8°
